KE8HFO Weather Reports


time (UTC)temp
C
wind
direction
speed
KPH
gust
KPH
rain 1hr
cm
rain 24hr
cm
rain mn
cm
humidity
%
barometer
mb
20260504215537 22 342 9.7 22.5 0.00 0.00 0.00 58 1007.5
20260504215036 22 32 11.3 22.5 0.00 0.00 0.00 58 1007.6
20260504214547 22 30 8.0 24.1 0.00 0.00 0.00 59 1007.5
20260504214036 21 15 8.0 24.1 0.00 0.00 0.00 59 1007.6
20260504213536 21 34 8.0 19.3 0.00 0.00 0.00 60 1007.6
20260504213047 21 339 6.4 19.3 0.00 0.00 0.00 62 1007.6
20260504212535 21 19 11.3 19.3 0.00 0.00 0.00 63 1007.5
20260504212033 21 321 11.3 17.7 0.00 0.00 0.00 63 1007.6
20260504211628 21 59 8.0 17.7 0.00 0.00 0.00 63 1007.7
20260504211037 21 54 6.4 17.7 0.00 0.00 0.00 63 1007.5
20260504210534 20 336 6.4 25.7 0.00 0.00 0.00 63 1007.4
20260504210052 20 33 6.4 25.7 0.00 0.00 0.00 63 1007.6
20260504205535 20 49 6.4 19.3 0.00 0.00 0.00 63 1008.0
20260504205035 20 82 8.0 24.1 0.00 0.00 0.00 64 1008.3
20260504204547 20 339 8.0 24.1 0.00 0.00 0.00 66 1008.1
20260504204036 20 94 8.0 24.1 0.00 0.00 0.00 66 1008.6
20260504203535 20 336 11.3 24.1 0.00 0.00 0.00 67 1008.6
20260504203046 20 45 9.7 24.1 0.00 0.00 0.00 65 1008.6
20260504202534 20 96 12.9 20.9 0.00 0.00 0.00 66 1008.3
20260504202033 20 40 8.0 17.7 0.00 0.00 0.00 64 1008.2
20260504201549 20 52 6.4 17.7 0.00 0.00 0.00 66 1008.2
20260504201035 19 140 8.0 19.3 0.00 0.00 0.00 67 1008.2
20260504200536 18 29 9.7 19.3 0.00 0.00 0.00 66 1008.1
20260504200052 18 35 8.0 19.3 0.00 0.00 0.00 68 1008.1
20260504195535 18 26 9.7 19.3 0.00 0.00 0.00 69 1008.4
20260504195034 18 325 8.0 22.5 0.00 0.00 0.00 70 1008.3
20260504194554 18 24 12.9 22.5 0.00 0.00 0.00 69 1008.7
20260504194034 18 39 14.5 22.5 0.00 0.00 0.00 67 1008.5
20260504193537 19 28 12.9 20.9 0.00 0.00 0.00 68 1008.9
20260504193044 19 43 12.9 24.1 0.00 0.00 0.00 67 1009.2
20260504192533 20 26 14.5 24.1 0.00 0.00 0.00 65 1009.6
20260504192034 20 333 9.7 19.3 0.00 0.00 0.00 66 1009.4
20260504191607 20 51 9.7 19.3 0.00 0.00 0.00 65 1009.5
20260504191036 20 350 6.4 25.7 0.00 0.00 0.00 63 1009.4
20260504190534 20 84 9.7 25.7 0.00 0.00 0.00 61 1009.4
20260504185535 20 32 12.9 22.5 0.00 0.00 0.00 61 1009.3
20260504185035 21 55 6.4 22.5 0.00 0.00 0.00 61 1009.0
20260504184552 21 51 11.3 19.3 0.00 0.00 0.00 61 1009.1
20260504184036 21 61 8.0 22.5 0.00 0.00 0.00 61 1009.0
20260504183536 21 68 8.0 22.5 0.00 0.00 0.00 61 1008.9
20260504183047 21 15 9.7 22.5 0.00 0.00 0.00 59 1009.1
20260504182538 21 55 11.3 25.7 0.00 0.00 0.00 62 1009.0
20260504182036 21 36 11.3 25.7 0.00 0.00 0.00 60 1008.6
20260504181553 21 42 11.3 25.7 0.00 0.00 0.00 59 1008.8
20260504181033 21 90 9.7 25.7 0.00 0.00 0.00 59 1008.8
20260504180534 21 50 14.5 25.7 0.00 0.00 0.00 57 1008.7
20260504180045 21 29 11.3 24.1 0.00 0.00 0.00 58 1008.5
20260504175535 21 310 8.0 22.5 0.00 0.00 0.00 59 1008.5
20260504175036 21 56 11.3 22.5 0.00 0.00 0.00 59 1008.8
20260504174548 21 28 12.9 30.6 0.00 0.00 0.00 60 1008.8
20260504174036 21 33 12.9 30.6 0.00 0.00 0.00 56 1008.7
20260504173535 21 290 12.9 25.7 0.00 0.00 0.00 58 1008.8
20260504173054 21 121 8.0 22.5 0.00 0.00 0.00 58 1008.7
20260504172535 21 42 12.9 22.5 0.00 0.00 0.00 59 1008.8
20260504172036 21 53 9.7 24.1 0.00 0.00 0.00 59 1008.6
20260504171548 21 39 9.7 24.1 0.00 0.00 0.00 58 1008.7
20260504171038 21 313 8.0 19.3 0.00 0.00 0.00 59 1008.9
20260504170536 21 131 9.7 19.3 0.00 0.00 0.00 60 1008.8
20260504151037 16 15 11.3 19.3 0.00 0.00 0.00 67 1009.8
20260504150538 16 51 8.0 22.5 0.00 0.00 0.00 68 1009.8
20260504141036 15 33 9.7 17.7 0.00 0.00 0.00 72 1010.2
20260504140535 14 35 4.8 22.5 0.00 0.00 0.00 71 1010.1
20260504130536 12 35 8.0 19.3 0.00 0.00 0.00 72 1010.6
20260504110535 9 53 6.4 12.9 0.00 0.00 0.00 75 1010.2
20260504100535 9 36 3.2 9.7 0.00 0.00 0.00 73 1010.7
20260504081555 10 338 4.8 12.9 0.00 0.00 0.00 71 1011.4
20260504081036 9 30 4.8 12.9 0.00 0.00 0.00 71 1011.3
20260504080537 9 20 4.8 9.7 0.00 0.00 0.00 71 1011.5
20260504050534 11 57 6.4 12.9 0.00 0.00 0.00 66 1012.9
20260504045532 11 22 4.8 14.5 0.00 0.00 0.00 65 1013.1
20260504045032 11 32 6.4 14.5 0.00 0.00 0.00 65 1013.1
20260504044545 11 325 3.2 12.9 0.00 0.00 0.00 65 1013.2
20260504044033 11 56 4.8 12.9 0.00 0.00 0.00 66 1013.2
20260504043537 11 38 4.8 9.7 0.00 0.00 0.00 66 1013.2
20260504043048 11 51 3.2 8.0 0.00 0.00 0.00 67 1013.3
20260504042536 11 340 3.2 8.0 0.00 0.00 0.00 67 1013.4
20260504042032 11 34 3.2 6.4 0.00 0.00 0.00 67 1013.3
20260504041546 11 330 1.6 4.8 0.00 0.00 0.00 68 1013.4
20260504041032 10 32 1.6 3.2 0.00 0.00 0.00 68 1013.4
20260504040532 10 9 0.0 3.2 0.00 0.00 0.00 69 1013.5
20260504040126 10 14 0.0 4.8 0.00 0.00 0.00 69 1013.6
20260504035532 10 24 0.0 4.8 0.00 0.00 0.00 69 1013.6
20260504035033 10 31 1.6 3.2 0.00 0.00 0.00 68 1013.7
20260504034544 10 22 0.0 3.2 0.00 0.00 0.00 69 1013.7
20260504034035 10 13 0.0 3.2 0.00 0.00 0.00 69 1013.7
20260504033533 10 0 0.0 3.2 0.00 0.00 0.00 69 1013.8
20260504033048 10 0 0.0 3.2 0.00 0.00 0.00 69 1013.9
20260504032533 10 14 0.0 1.6 0.00 0.00 0.00 70 1013.8
20260504032032 10 0 0.0 1.6 0.00 0.00 0.00 70 1013.9
20260504031554 10 350 0.0 1.6 0.00 0.00 0.00 70 1013.8
20260504031035 10 19 0.0 1.6 0.00 0.00 0.00 71 1014.0
20260504030532 10 22 0.0 1.6 0.00 0.00 0.00 71 1014.0
20260504030045 10 311 0.0 3.2 0.00 0.00 0.00 71 1014.1
20260504025534 10 0 0.0 3.2 0.00 0.00 0.00 72 1014.2
20260504025032 10 35 0.0 3.2 0.00 0.00 0.00 72 1014.2
20260504024544 10 35 0.0 3.2 0.00 0.00 0.00 73 1014.3
20260504024036 10 36 0.0 1.6 0.00 0.00 0.00 72 1014.3
20260504023537 10 0 0.0 4.8 0.00 0.00 0.00 72 1014.3
20260504023049 10 0 0.0 4.8 0.00 0.00 0.00 73 1014.4
20260504022537 10 22 0.0 1.6 0.00 0.00 0.00 73 1014.3
20260504022037 10 0 0.0 3.2 0.00 0.00 0.00 73 1014.4
20260504021548 10 0 0.0 3.2 0.00 0.00 0.00 74 1014.3
20260504021037 10 0 0.0 1.6 0.00 0.00 0.00 74 1014.4
20260504020536 10 0 0.0 1.6 0.00 0.00 0.00 74 1014.3
20260504020100 10 0 0.0 3.2 0.00 0.00 0.00 75 1014.3
20260504015541 10 0 0.0 3.2 0.00 0.00 0.00 75 1014.2
20260504015037 9 39 0.0 3.2 0.00 0.00 0.00 76 1014.2
20260504014552 10 50 0.0 3.2 0.00 0.00 0.00 77 1014.4
20260504014038 10 343 0.0 3.2 0.00 0.00 0.00 76 1014.3
20260504013538 10 340 1.6 3.2 0.00 0.00 0.00 76 1014.4
20260504013046 10 0 0.0 3.2 0.00 0.00 0.00 76 1014.4
20260504012537 10 327 0.0 3.2 0.00 0.00 0.00 76 1014.2
20260504012040 10 48 0.0 1.6 0.00 0.00 0.00 75 1014.4
20260504011547 10 0 0.0 1.6 0.00 0.00 0.00 75 1014.4
20260504011037 10 0 0.0 1.6 0.00 0.00 0.00 75 1014.4
20260504010536 10 0 0.0 1.6 0.00 0.00 0.00 75 1014.5
20260504010054 10 0 0.0 1.6 0.00 0.00 0.00 75 1014.5
20260504005537 10 0 0.0 1.6 0.00 0.00 0.00 74 1014.4
20260504005042 10 0 0.0 1.6 0.00 0.00 0.00 74 1014.4
20260504004545 10 0 0.0 1.6 0.00 0.00 0.00 73 1014.3
20260504004038 10 0 0.0 1.6 0.00 0.00 0.00 73 1014.3
20260504003539 10 0 0.0 1.6 0.00 0.00 0.00 73 1014.3
20260504003046 10 0 0.0 1.6 0.00 0.00 0.00 72 1014.4
20260504002535 10 325 0.0 1.6 0.00 0.00 0.00 72 1014.4
20260504002035 10 0 0.0 1.6 0.00 0.00 0.00 72 1014.4
20260504001552 10 325 0.0 1.6 0.00 0.00 0.00 71 1014.3
20260504001035 10 0 0.0 1.6 0.00 0.00 0.00 71 1014.3
20260504000537 10 0 0.0 3.2 0.00 0.00 0.00 72 1014.2
20260504000050 10 331 0.0 3.2 0.00 0.00 0.00 72 1014.2
20260503235536 10 0 0.0 1.6 0.00 0.00 0.00 72 1014.3
20260503235037 10 0 0.0 1.6 0.00 0.00 0.00 73 1014.2
20260503234610 10 0 0.0 1.6 0.00 0.00 0.00 73 1014.1
20260503234035 10 293 0.0 1.6 0.00 0.00 0.00 73 1014.2
20260503233535 10 306 0.0 1.6 0.00 0.00 0.00 73 1014.4
20260503233051 10 0 0.0 1.6 0.00 0.00 0.00 74 1014.4
20260503232535 10 0 0.0 1.6 0.00 0.00 0.00 74 1014.4
20260503232036 10 0 0.0 1.6 0.00 0.00 0.00 74 1014.6
20260503231549 10 0 0.0 1.6 0.00 0.00 0.00 75 1014.6
20260503231036 10 30 0.0 1.6 0.00 0.00 0.00 75 1014.8
20260503230539 10 285 0.0 1.6 0.00 0.00 0.00 75 1014.8
20260503230048 10 0 0.0 1.6 0.00 0.00 0.00 76 1015.1
20260503225536 10 0 0.0 0.0 0.00 0.00 0.00 77 1015.2
20260503225036 10 0 0.0 1.6 0.00 0.00 0.00 76 1015.1
20260503224547 9 0 0.0 1.6 0.00 0.00 0.00 76 1015.3
20260503224037 9 0 0.0 1.6 0.00 0.00 0.00 76 1015.5
20260503223537 9 0 0.0 1.6 0.00 0.00 0.00 76 1015.6
20260503223049 9 0 0.0 0.0 0.00 0.00 0.00 76 1015.9
20260503222538 9 0 0.0 0.0 0.00 0.00 0.00 76 1016.0
20260503222036 9 0 0.0 1.6 0.00 0.00 0.00 76 1015.9
20260503221554 9 0 0.0 1.6 0.00 0.00 0.00 76 1016.0
20260503221036 10 315 0.0 1.6 0.00 0.00 0.00 76 1016.3
20260503220537 10 331 0.0 1.6 0.00 0.00 0.00 74 1016.4
20260503220048 10 331 0.0 1.6 0.00 0.00 0.00 71 1016.4